Location: L�Ave Maria
(50.7161°N, 1.5911°E)
Time: 13:16:56
(UTC+00:00)

Cosmos 1151 Rocket - Pass Details

Date: 10 July 2020
Orbit: 591 x 617 km, 82.5° (Epoch: 07 August)

Event Time Altitude Azimuth Distance (km) Brightness Sun altitude
Rises 22:57:20 0° 347° (NNW) 2,875 8.4 -15.9°
Reaches altitude 10° 22:59:35 10° 344° (NNW) 1,962 7.0 -16.0°
Maximum altitude 23:03:52 65° 263° (W) 665 3.2 -16.2°
Enters shadow 23:05:58 29° 190° (S) 1,117 3.8 -16.3°
